DLH493 CYVR-EDDF

Flight info

Callsign DLH493
Flight time N/A
Altitude 31000
Route CYVR/26L SEATN DCT 5230N12000W 58N110W 6130N10000W/N0486F330 64N090W 6530N08000W 6630N07000W/M084F330 DCT DARUB DCT 67N050W/M083F350 6630N04000W 6530N03000W 6430N02000W 6230N01000W DCT NALAN/N0480F350 DCT FORTY DCT ODMIX DCT CUTEL DCT LARDI DCT TOPPA DCT AMGOD DCT PETIK DCT SOGPO DCT DIXAT DIXAT1B
Aircraft A346/H-SDE2E3FGHIJ3J4J5M1RWXY/LB1D1

Departure

Time 2026-05-03 21:46
Airport Vancouver International Airport (CYVR)

Arrival

Time N/A
Airport Frankfurt Main Airport (EDDF)
Time Latitude Longitude Altitude Speed Heading
2026-05-03 21:20 49.19935 -123.18023 33 ft 0 kts 189°
2026-05-03 21:29 49.19936 -123.18023 33 ft 2 kts 189°
2026-05-03 21:29 49.19944 -123.18021 32 ft 3 kts 190°
2026-05-03 21:29 49.19969 -123.18012 31 ft 4 kts 201°
2026-05-03 21:30 49.19987 -123.17996 32 ft 4 kts 233°
2026-05-03 21:30 49.19990 -123.17985 31 ft 3 kts 279°
2026-05-03 21:30 49.19986 -123.17946 31 ft 4 kts 279°
2026-05-03 21:30 49.19983 -123.17924 31 ft 0 kts 279°
2026-05-03 21:34 49.19984 -123.17927 33 ft 1 kts 279°
2026-05-03 21:34 49.19985 -123.17938 33 ft 2 kts 279°
2026-05-03 21:35 49.19989 -123.17974 33 ft 5 kts 279°
2026-05-03 21:35 49.19996 -123.18034 33 ft 7 kts 279°
2026-05-03 21:35 49.20005 -123.18116 33 ft 9 kts 280°
2026-05-03 21:35 49.20016 -123.18212 33 ft 10 kts 280°
2026-05-03 21:36 49.20028 -123.18323 33 ft 11 kts 280°
2026-05-03 21:36 49.20043 -123.18449 33 ft 11 kts 279°
2026-05-03 21:36 49.20006 -123.18516 33 ft 10 kts 199°
2026-05-03 21:36 49.19936 -123.18542 33 ft 11 kts 191°
2026-05-03 21:37 49.19858 -123.18564 33 ft 12 kts 189°
2026-05-03 21:37 49.19778 -123.18584 33 ft 11 kts 195°
2026-05-03 21:37 49.19747 -123.18681 33 ft 12 kts 275°
2026-05-03 21:37 49.19762 -123.18809 33 ft 13 kts 280°
2026-05-03 21:38 49.19778 -123.18947 33 ft 14 kts 280°
2026-05-03 21:38 49.19792 -123.19082 33 ft 10 kts 267°
2026-05-03 21:38 49.19751 -123.19133 33 ft 7 kts 193°
2026-05-03 21:38 49.19695 -123.19150 33 ft 9 kts 191°
2026-05-03 21:39 49.19627 -123.19168 33 ft 11 kts 189°
2026-05-03 21:39 49.19552 -123.19158 33 ft 12 kts 152°
2026-05-03 21:39 49.19481 -123.19076 33 ft 13 kts 141°
2026-05-03 21:39 49.19405 -123.18983 33 ft 14 kts 142°
2026-05-03 21:40 49.19323 -123.18885 33 ft 16 kts 142°
2026-05-03 21:40 49.19234 -123.18779 33 ft 17 kts 142°
2026-05-03 21:40 49.19139 -123.18666 32 ft 18 kts 142°
2026-05-03 21:40 49.19041 -123.18549 31 ft 18 kts 142°
2026-05-03 21:41 49.18953 -123.18415 33 ft 18 kts 108°
2026-05-03 21:41 49.18930 -123.18226 33 ft 19 kts 100°
2026-05-03 21:41 49.18907 -123.18030 33 ft 19 kts 100°
2026-05-03 21:41 49.18883 -123.17829 33 ft 20 kts 100°
2026-05-03 21:42 49.18858 -123.17614 33 ft 21 kts 100°
2026-05-03 21:42 49.18832 -123.17382 33 ft 23 kts 98°
2026-05-03 21:42 49.18808 -123.17136 33 ft 24 kts 98°
2026-05-03 21:42 49.18778 -123.16883 33 ft 25 kts 102°
2026-05-03 21:43 49.18748 -123.16644 33 ft 20 kts 100°
2026-05-03 21:43 49.18726 -123.16453 33 ft 18 kts 99°
2026-05-03 21:43 49.18695 -123.16296 33 ft 12 kts 141°
2026-05-03 21:43 49.18642 -123.16193 33 ft 13 kts 115°
2026-05-03 21:44 49.18628 -123.16103 33 ft 4 kts 108°
2026-05-03 21:44 49.18607 -123.16058 33 ft 6 kts 147°
2026-05-03 21:44 49.18565 -123.16046 33 ft 7 kts 179°
2026-05-03 21:44 49.18512 -123.16051 33 ft 8 kts 187°
2026-05-03 21:45 49.18478 -123.16105 33 ft 8 kts 263°
2026-05-03 21:45 49.18480 -123.16144 33 ft 0 kts 287°
2026-05-03 21:45 49.18484 -123.16177 33 ft 16 kts 281°
2026-05-03 21:45 49.18542 -123.16690 33 ft 82 kts 280°
2026-05-03 21:46 49.18677 -123.17863 32 ft 140 kts 280°
2026-05-03 21:46 49.18870 -123.19596 55 ft 185 kts 281°
2026-05-03 21:46 49.19113 -123.21558 645 ft 188 kts 282°
2026-05-03 21:46 49.19387 -123.23539 1375 ft 192 kts 280°
2026-05-03 21:47 49.19636 -123.25565 2045 ft 196 kts 280°
2026-05-03 21:47 49.19847 -123.27695 2370 ft 209 kts 279°
2026-05-03 21:47 49.20059 -123.29980 2667 ft 224 kts 279°
2026-05-03 21:47 49.20289 -123.32441 2920 ft 241 kts 278°
2026-05-03 21:48 49.20538 -123.35036 3231 ft 257 kts 278°
2026-05-03 21:48 49.20810 -123.37813 3669 ft 267 kts 279°
2026-05-03 21:48 49.21091 -123.40651 4281 ft 271 kts 280°
2026-05-03 21:48 49.21726 -123.43367 4899 ft 274 kts 305°
2026-05-03 21:49 49.23109 -123.45343 5543 ft 275 kts 333°
2026-05-03 21:49 49.24918 -123.46134 6190 ft 276 kts 358°
2026-05-03 21:49 49.26846 -123.46098 6842 ft 278 kts
2026-05-03 21:49 49.28786 -123.45841 7476 ft 280 kts 12°
2026-05-03 21:50 49.30622 -123.44849 8129 ft 280 kts 27°
2026-05-03 21:50 49.32351 -123.43462 8789 ft 282 kts 29°
2026-05-03 21:50 49.34065 -123.42051 9423 ft 284 kts 28°
2026-05-03 21:50 49.35824 -123.40641 10081 ft 285 kts 28°
2026-05-03 21:51 49.37609 -123.39240 10551 ft 293 kts 27°
2026-05-03 21:51 49.39479 -123.37796 10801 ft 308 kts 27°
2026-05-03 21:51 49.41448 -123.36295 11071 ft 322 kts 26°
2026-05-03 21:51 49.43507 -123.34735 11341 ft 337 kts 26°
2026-05-03 21:52 49.45627 -123.33135 11588 ft 351 kts 26°
2026-05-03 21:52 49.47866 -123.31447 11850 ft 365 kts 26°
2026-05-03 21:52 49.50161 -123.29720 12421 ft 367 kts 26°
2026-05-03 21:52 49.52457 -123.27990 13134 ft 368 kts 26°
2026-05-03 21:53 49.54767 -123.26249 13762 ft 371 kts 25°
2026-05-03 21:53 49.57099 -123.24491 14286 ft 375 kts 25°
2026-05-03 21:53 49.59456 -123.22713 14836 ft 378 kts 26°
2026-05-03 21:53 49.61834 -123.20918 15369 ft 380 kts 26°
2026-05-03 21:54 49.64196 -123.19132 15894 ft 383 kts 26°
2026-05-03 21:54 49.66596 -123.17314 16422 ft 385 kts 25°
2026-05-03 21:54 49.69017 -123.15479 16944 ft 389 kts 25°
2026-05-03 21:54 49.71454 -123.13629 17467 ft 391 kts 25°
2026-05-03 21:55 49.73911 -123.11763 17983 ft 394 kts 25°
2026-05-03 21:55 49.76385 -123.09881 18469 ft 397 kts 25°
2026-05-03 21:55 49.78881 -123.07980 18916 ft 400 kts 25°
2026-05-03 21:55 49.81384 -123.06073 19387 ft 402 kts 25°
2026-05-03 21:56 49.83907 -123.04147 19828 ft 405 kts 25°
2026-05-03 21:56 49.86415 -123.02232 20306 ft 407 kts 25°
2026-05-03 21:56 49.88965 -123.00283 20734 ft 409 kts 25°
2026-05-03 21:56 49.91523 -122.98326 21196 ft 411 kts 25°
2026-05-03 21:57 49.94103 -122.96352 21623 ft 414 kts 24°
2026-05-03 21:57 49.96702 -122.94360 22049 ft 416 kts 25°
2026-05-03 21:57 49.99311 -122.92356 22478 ft 418 kts 25°
2026-05-03 21:57 50.01896 -122.90367 22937 ft 421 kts 25°
2026-05-03 21:58 50.04538 -122.88331 23397 ft 423 kts 25°
2026-05-03 21:58 50.07190 -122.86285 23744 ft 426 kts 25°
2026-05-03 21:58 50.09857 -122.84226 24094 ft 428 kts 25°
2026-05-03 21:58 50.12502 -122.82178 24467 ft 430 kts 25°
2026-05-03 21:59 50.15185 -122.80100 24832 ft 431 kts 24°
2026-05-03 21:59 50.17883 -122.78008 25225 ft 432 kts 25°
2026-05-03 21:59 50.20595 -122.75905 25599 ft 434 kts 24°
2026-05-03 21:59 50.23272 -122.73826 25992 ft 435 kts 25°
2026-05-03 22:00 50.25992 -122.71704 26366 ft 436 kts 24°
2026-05-03 22:00 50.28713 -122.69583 26723 ft 437 kts 24°
2026-05-03 22:00 50.31438 -122.67458 27079 ft 438 kts 24°
2026-05-03 22:00 50.34076 -122.65009 27411 ft 442 kts 32°
2026-05-03 22:01 50.36562 -122.62141 27796 ft 444 kts 34°
2026-05-03 22:01 50.39027 -122.59172 28164 ft 447 kts 34°
2026-05-03 22:01 50.41504 -122.56199 28512 ft 449 kts 34°
2026-05-03 22:01 50.44000 -122.53231 28837 ft 451 kts 34°
2026-05-03 22:02 50.46518 -122.50262 29162 ft 452 kts 34°
2026-05-03 22:02 50.49019 -122.47325 29483 ft 453 kts 34°
2026-05-03 22:02 50.51560 -122.44350 29783 ft 455 kts 34°
2026-05-03 22:02 50.54108 -122.41371 30162 ft 454 kts 33°
2026-05-03 22:03 50.56605 -122.38449 30597 ft 450 kts 33°
2026-05-03 22:03 50.59110 -122.35514 31088 ft 446 kts 33°
2026-05-03 22:03 50.61593 -122.32600 31552 ft 442 kts 33°
2026-05-03 22:03 50.64054 -122.29714 31987 ft 439 kts 33°
2026-05-03 22:04 50.66493 -122.26850 32402 ft 435 kts 33°
2026-05-03 22:04 50.68914 -122.24006 32840 ft 431 kts 33°
2026-05-03 22:04 50.71316 -122.21183 33236 ft 428 kts 32°
2026-05-03 22:04 50.73677 -122.18403 33578 ft 426 kts 32°
2026-05-03 22:05 50.76063 -122.15593 33767 ft 428 kts 32°
2026-05-03 22:05 50.78453 -122.12776 34010 ft 428 kts 32°
2026-05-03 22:05 50.80829 -122.09968 34351 ft 425 kts 32°
2026-05-03 22:05 50.83194 -122.07164 34655 ft 423 kts 32°
2026-05-03 22:06 50.85554 -122.04370 34931 ft 422 kts 32°
2026-05-03 22:06 50.87878 -122.01616 35087 ft 423 kts 32°
2026-05-03 22:06 50.92610 -121.95994 35086 ft 424 kts 32°
2026-05-03 22:07 50.97313 -121.90388 35083 ft 425 kts 32°
2026-05-03 22:07 51.02043 -121.84735 35104 ft 425 kts 32°
2026-05-03 22:08 51.06782 -121.79054 35095 ft 425 kts 32°
2026-05-03 22:08 51.11476 -121.73411 35099 ft 426 kts 32°
2026-05-03 22:09 51.16207 -121.67714 35105 ft 426 kts 32°
2026-05-03 22:10 51.23310 -121.59132 35101 ft 426 kts 32°
2026-05-03 22:10 51.28006 -121.53432 35110 ft 426 kts 32°
2026-05-03 22:11 51.32734 -121.47684 35106 ft 426 kts 32°
2026-05-03 22:11 51.37429 -121.41962 35105 ft 426 kts 32°
2026-05-03 22:12 51.42149 -121.36194 35100 ft 426 kts 32°
2026-05-03 22:12 51.46871 -121.30407 35101 ft 426 kts 32°
2026-05-03 22:13 51.51589 -121.24604 35110 ft 426 kts 31°
2026-05-03 22:13 51.56282 -121.18821 35102 ft 426 kts 31°
2026-05-03 22:14 51.60973 -121.13029 35098 ft 427 kts 31°